Weather History for Oceanside, CA

Change the Weather History Date:

Saturday, November 9, 2013

  Actual Average Record
Temperature  
Mean Temperature 56 °F 58 °F  
Max Temperature 73 °F 71 °F 77 °F (2011)
Min Temperature 39 °F 45 °F 36 °F (2011)
Degree Days  
Heating Degree Days 9 7  
Month to date heating degree days 54 57  
Since 1 July heating degree days 168 159  
Cooling Degree Days 0 0  
Month to date cooling degree days 0 0  
Year to date cooling degree days 530 416  
Growing Degree Days 6 (Base 50)    
Moisture  
Dew Point 43 °F    
Average Humidity 66    
Maximum Humidity 100    
Minimum Humidity 31    
Precipitation  
Precipitation 0.00 in 0.04 in 0.07 in (2002)
Month to date precipitation 0.00 0.43  
Year to date precipitation 2.76 10.91  
Since 1 July precipitation 0.44 1.64  
Snow  
Snow 0.00 in - - ()
Month to date snowfall 0.0  
Year to date snowfall 0.0  
Since 1 July snowfall 0.0  
Snow Depth 0.00 in    
Sea Level Pressure  
Sea Level Pressure 30.02 in    
Wind  
Wind Speed 3 mph (West)    
Max Wind Speed 12 mph    
Max Gust Speed 14 mph    
Visibility 6 miles    
Events Fog    
T = Trace of Precipitation, MM = Missing Value Source: NWS Daily Summary

Daily Weather History Graph

Daily Weather History Graph

Search for Another Location

Airport:

Trip Planner

Search our weather history database for the weather conditions in past years. The results will help you decide how hot, cold, wet, or windy it might be!

Date:

Astronomy

Nov. 09, 2013 Rise Set
Actual Time 6:15 AM PST 4:50 PM PST
Civil Twilight 5:49 AM PST 5:16 PM PST
Nautical Twilight 5:19 AM PST 5:46 PM PST
Astronomical Twilight 4:50 AM PST 6:15 PM PST
Moon 11:58 AM PST (11/9) 11:21 PM PST (11/9)
Length of Visible Light 11h 27m
Length of Day
10h 35m
Waxing Crescent, 45% of the Moon is Illuminated
Nov 9
Waxing Crescent
Nov 9
First Quarter
Nov 17
Full
Nov 25
Last Quarter
Dec 2
New

Hourly Weather History & Observations

Time (PST) Temp. Windchill Dew Point Humidity Pressure Visibility Wind Dir Wind Speed Gust Speed Precip Events Conditions
12:17 AM 48.2 °F - 46.4 °F 93% 30.01 in 1.0 mi Calm Calm - N/A   Mist
12:27 AM 46.4 °F - 44.6 °F 93% 30.01 in 2.5 mi Calm Calm - N/A   Partly Cloudy
12:34 AM 46.4 °F - 44.6 °F 93% 30.01 in 6.0 mi Calm Calm - N/A   Scattered Clouds
12:42 AM 46.4 °F - 44.6 °F 93% 30.01 in 7.0 mi Calm Calm - N/A   Mostly Cloudy
12:52 AM 48.0 °F - 45.0 °F 89% 30.01 in 6.0 mi Calm Calm - N/A   Mostly Cloudy
1:48 AM 48.2 °F - 46.4 °F 93% 30.01 in 1.8 mi NE 3.5 mph - N/A   Overcast
1:52 AM 48.9 °F - 46.9 °F 93% 30.01 in 1.0 mi Calm Calm - N/A   Overcast
2:00 AM 48.2 °F - 46.4 °F 93% 30.01 in 0.5 mi Calm Calm - N/A Fog Fog
2:52 AM 48.9 °F - 46.9 °F 93% 30.00 in 2.5 mi NE 3.5 mph - N/A   Mostly Cloudy
2:59 AM 48.2 °F - 46.4 °F 93% 30.00 in 4.0 mi NE 3.5 mph - N/A   Overcast
3:52 AM 46.0 °F - 44.1 °F 93% 30.01 in 7.0 mi Calm Calm - N/A   Mostly Cloudy
4:14 AM 46.4 °F - 44.6 °F 93% 30.00 in 1.8 mi Calm Calm - N/A   Mostly Cloudy
4:25 AM 46.4 °F - 44.6 °F 93% 30.01 in 2.5 mi Calm Calm - N/A   Scattered Clouds
4:32 AM 42.8 °F - 42.8 °F 100% 30.01 in 4.0 mi Calm Calm - N/A   Partly Cloudy
4:52 AM 42.1 °F - 39.0 °F 89% 30.01 in 8.0 mi Calm Calm - N/A   Clear
5:11 AM 44.6 °F - 42.8 °F 93% 30.01 in 2.5 mi Calm Calm - N/A   Clear
5:18 AM 42.8 °F - 41.0 °F 93% 30.01 in 1.0 mi Calm Calm - N/A   Clear
5:37 AM 42.8 °F - 39.2 °F 87% 30.02 in 3.0 mi Calm Calm - N/A   Clear
5:52 AM 41.0 °F - 39.0 °F 93% 30.02 in 6.0 mi Calm Calm - N/A   Clear
6:03 AM 39.2 °F - 37.4 °F 93% 30.02 in 2.5 mi Calm Calm - N/A   Clear
6:11 AM 39.2 °F - 37.4 °F 93% 30.02 in 6.0 mi Calm Calm - N/A   Clear
6:52 AM 39.9 °F 37.8 °F 39.0 °F 97% 30.03 in 7.0 mi NE 3.5 mph - N/A   Clear
7:52 AM 50.0 °F - 39.0 °F 66% 30.04 in 9.0 mi NE 3.5 mph - N/A   Clear
8:52 AM 59.0 °F - 37.9 °F 46% 30.05 in 10.0 mi Calm Calm - N/A   Clear
9:52 AM 66.9 °F - 45.0 °F 45% 30.05 in 9.0 mi SW 3.5 mph - N/A   Clear
10:52 AM 69.1 °F - 50.0 °F 51% 30.04 in 8.0 mi WSW 8.1 mph - N/A   Clear
11:52 AM 71.1 °F - 46.0 °F 41% 30.02 in 9.0 mi WSW 9.2 mph - N/A   Clear
12:52 PM 73.0 °F - 44.1 °F 35% 30.00 in 9.0 mi SW 9.2 mph - N/A   Clear
1:52 PM 71.1 °F - 43.0 °F 36% 30.01 in 9.0 mi WSW 8.1 mph - N/A   Clear
2:52 PM 71.1 °F - 39.0 °F 31% 30.00 in 9.0 mi West 4.6 mph - N/A   Clear
3:52 PM 68.0 °F - 37.0 °F 32% 29.99 in 8.0 mi West 3.5 mph - N/A   Clear
4:52 PM 61.0 °F - 48.0 °F 62% 30.00 in 9.0 mi WSW 3.5 mph - N/A   Clear
5:52 PM 59.0 °F - 52.0 °F 78% 30.02 in 9.0 mi Calm Calm - N/A   Clear
6:52 PM 52.0 °F - 45.0 °F 77% 30.04 in 8.0 mi Calm Calm - N/A   Clear
7:52 PM 51.1 °F - 46.0 °F 83% 30.06 in 7.0 mi Calm Calm - N/A   Clear
8:52 PM 46.0 °F - 43.0 °F 89% 30.07 in 7.0 mi Calm Calm - N/A   Clear
9:52 PM 48.0 °F - 39.9 °F 74% 30.07 in 9.0 mi Calm Calm - N/A   Clear
10:52 PM 46.9 °F - 39.0 °F 74% 30.06 in 9.0 mi Calm Calm - N/A   Clear
11:52 PM 48.9 °F - 37.0 °F 64% 30.04 in 10.0 mi Calm Calm - N/A   Clear